sat.trackr.live / text

‹ back to catalog

YUNHAI-1 01

NORAD 41857 · 2016-068A

PAYLOAD ACTIVE UNKNOWN

§ Identity

Operator
Country
PRC
Launch date
2016-11-11
Launch site
JSC
Launch vehicle
Mass (kg)
RCS (m²)
4.24

External: N2YO · Heavens-Above · Gunter

§ Orbital elements

Epoch: 2026-09-20T05:17:51.668160Z

Period
100.52 min
Inclination
98.5876°
Eccentricity
0.0004114
Mean motion
14.32516831 rev/d
Perigee alt
780.4 km
Apogee alt
786.3 km
Semi-major
7,161.5 km
B*
9.2888e-5
RAAN
273.3570°
Arg perigee
103.7606°
Mean anomaly
256.4035°
Rev number
51,543

§ Raw data

YUNHAI-1 011 41857U 16068A   26263.22073690  .00000208  00000+0  92888-4 0  99922 41857  98.5876 273.3570 0004114 103.7606 256.4035 14.32516831515437

JSON: /api/v1/satellites/41857 · /tle

For live sub-satellite position, see the globe view (requires WebGL).

§ Visibility from observer

Set your observer location to see the next 7 days of passes ≥ 10°. The values pass through the URL so the page stays shareable.

No JS? Fill the form by hand. The geolocation button needs JavaScript.

§ Radio — SatNOGS DB

ModeDescriptionDownlinkUplink
FM Mode L 1.704 GHz

1 transmitter · refreshed weekly from db.satnogs.org